• Join FlightAware (Why Join?)
  • Login
  • US Flag 
03:32PM EST


 

Airport Tracker/Info


-or-


 

Live Flight TrackerFlight Track Log ✈ FLG3773 ✈ 10-May-2013 ✈ KDTW - KSAW

Flight Track Log - Related Links

Times and Time Zones

All times are in EDT time to prevent confusion due to time zone crossing. See the FLG3773 flight status page for this flight to view local times or setup timezone preferences in your user account.

Time Position Orientation Groundspeed Altitude Reporting Facility
EDT Latitude Longitude Course Direction KTS MPH feet Rate Location/Type
03:57PM 42.2314 -83.3342 North 155 178 1,500  Level Cleveland Center
03:58PM 42.2650 -83.3217 15° North 216 249 2,700 2,077 Climbing Cleveland Center
03:59PM 42.3322 -83.2936 17° North 291 335 5,100 2,543 Climbing Cleveland Center
04:00PM 42.4500 -83.2508 15° North 310 357 9,100 2,360 Climbing Cleveland Center
04:01PM 42.6199 -83.3500 North  Level FlightAware Approximate
04:01PM 42.5331 -83.2742 348° North 298 343 11,000  Level Cleveland Center
04:02PM 42.7248 -83.3500 North  Level FlightAware Approximate
04:02PM 42.6283 -83.2953 351° North 316 364 13,000  Level Cleveland Center
04:03PM 42.7278 -83.3219 349° North 340 391 14,800 1,700 Climbing Cleveland Center
04:04PM 42.8314 -83.3464 350° North 359 413 16,400 1,600 Climbing Cleveland Center
04:05PM 42.9372 -83.3681 351° North 372 428 18,000 1,650 Climbing Cleveland Center
04:06PM 43.0478 -83.3675 360° North 378 435 19,700 1,450 Climbing Cleveland Center
04:07PM 43.1292 -83.4450 325° Northwest 364 419 20,900 1,100 Climbing Cleveland Center
04:08PM 43.1953 -83.5506 311° West 352 405 21,900 1,000 Climbing Cleveland Center
04:09PM 43.2653 -83.6594 311° West 368 423 22,900 621 Climbing Cleveland Center
04:12PM 43.4300 -83.9153 312° West 371 427 24,000 322 Climbing Minneapolis Center
04:13PM 43.4886 -84.0089 311° West 333 383 24,000  Level Minneapolis Center
04:13PM 43.5367 -84.0883 310° West 316 364 24,000  Level Cleveland Center
04:14PM 43.5286 -84.2111 265° West 288 331 24,000 -50 Level Cleveland Center
04:15PM 43.4958 -84.3264 249° West 302 348 23,900 -500 Descending Cleveland Center
04:16PM 43.4081 -84.3325 183° South 241 277 23,000 -450 Descending Cleveland Center
04:17PM 43.3644 -84.1986 114° Southeast 224 258 23,000 -100 Level Cleveland Center
04:18PM 43.2925 -84.0944 133° Southeast 279 321 22,800 -1,100 Descending Cleveland Center
04:19PM 43.2050 -84.0297 152° Southeast 332 382 20,800 -2,200 Descending Cleveland Center
04:20PM 43.1092 -83.9533 150° Southeast 376 433 18,400 -2,400 Descending Cleveland Center
04:21PM 43.0175 -83.8800 150° Southeast 382 440 16,000 -2,571 Descending Cleveland Center
04:22PM 42.9339 -83.8133 150° Southeast 360 414 13,600 -2,243 Descending Cleveland Center
04:23PM 42.8564 -83.7497 149° Southeast 357 411 12,000 -787 Descending Cleveland Center
04:24PM 42.7561 -83.6881 156° South 351 404 12,000  Level Cleveland Center
04:25PM 42.6697 -83.6386 157° South 356 410 12,000  Level Cleveland Center
04:26PM 42.5733 -83.5806 156° South 356 410 12,000  Level Cleveland Center
04:27PM 42.4911 -83.5342 157° South 348 400 12,000  Level Cleveland Center
04:28PM 42.4003 -83.4964 163° South 251 289 12,000 -465 Level Cleveland Center
04:29PM 42.3342 -83.4708 164° South 260 299 11,000 -843 Descending Cleveland Center
04:30PM 42.2725 -83.4428 161° South 240 276 10,300 -1,172 Descending Cleveland Center
04:32PM 42.2025 -83.4058 159° South 251 289 8,500 -1,406 Descending Cleveland Center
04:33PM 42.1586 -83.3256 126° Southeast 253 291 7,300 -1,293 Descending Cleveland Center
04:34PM 42.1136 -83.2872 148° Southeast 216 249 6,000 -1,436 Descending Cleveland Center
04:35PM 42.0547 -83.3042 192° South 209 241 4,500 -1,488 Descending Cleveland Center
04:36PM 42.0181 -83.3558 226° Southwest 207 238 3,000 -744 Descending Cleveland Center
04:37PM 41.9981 -83.4081 243° Southwest 212 244 3,000  Level Cleveland Center